Location: München
(48.1351°N, 11.5820°E)
Time: 22:36:36
(UTC+01:00)

ISS - Pass Details

Date: 02 February 2020
Orbit: 415 x 423 km, 51.6° (Epoch: 25 February)

Event Time Altitude Azimuth Distance (km) Brightness Sun altitude
Rises 19:17:46 0° 292° (WNW) 2,380 1.2 -20.8°
Reaches altitude 10° 19:19:53 10° 291° (WNW) 1,512 0.0 -21.1°
Enters shadow 19:22:55 68° 267° (W) 460 -3.5 -21.6°
